| time (UTC) | temp C | wind direction | speed KPH | gust KPH | rain 1hr cm | rain 24hr cm | rain mn cm | humidity % | barometer mb |
| 20260505041553 | -17 | 172 | 4.8 | 16.1 | 0.00 | 0.00 | 0.00 | 1008.9 | |
| 20260505040100 | -17 | 274 | 6.4 | 17.7 | 0.00 | 0.00 | 0.00 | 1008.9 | |
| 20260505034550 | -17 | 260 | 8.0 | 16.1 | 0.00 | 0.00 | 0.00 | 1008.8 | |
| 20260505033053 | -17 | 200 | 8.0 | 17.7 | 0.00 | 0.00 | 0.00 | 1008.5 | |
| 20260505031552 | -17 | 157 | 8.0 | 17.7 | 0.00 | 0.00 | 0.00 | 1008.5 | |
| 20260505030052 | -17 | 120 | 4.8 | 27.4 | 0.00 | 0.00 | 0.00 | 1008.0 | |
| 20260505024609 | -17 | 247 | 4.8 | 17.7 | 0.00 | 0.00 | 0.00 | 1007.9 | |
| 20260505023051 | -17 | 197 | 6.4 | 22.5 | 0.00 | 0.00 | 0.00 | 1007.8 | |
| 20260505021613 | -17 | 225 | 4.8 | 12.9 | 0.00 | 0.00 | 0.00 | 1007.7 | |
| 20260505020054 | -17 | 77 | 3.2 | 20.9 | 0.00 | 0.00 | 0.00 | 1007.8 | |
| 20260505014555 | -17 | 276 | 9.7 | 19.3 | 0.00 | 0.00 | 0.00 | 1007.7 | |
| 20260505013057 | -17 | 251 | 4.8 | 17.7 | 0.00 | 0.00 | 0.00 | 1007.4 | |
| 20260505011557 | -17 | 190 | 6.4 | 14.5 | 0.00 | 0.00 | 0.00 | 1007.3 | |
| 20260505010053 | -17 | 205 | 8.0 | 19.3 | 0.00 | 0.00 | 0.00 | 1007.1 | |
| 20260505004552 | -17 | 278 | 6.4 | 14.5 | 0.00 | 0.00 | 0.00 | 1007.0 | |
| 20260505003058 | -17 | 137 | 3.2 | 17.7 | 0.00 | 0.00 | 0.00 | 1006.6 | |
| 20260505001555 | -17 | 196 | 9.7 | 24.1 | 0.00 | 0.00 | 0.00 | 1006.3 | |
| 20260505000057 | -17 | 11 | 11.3 | 30.6 | 0.00 | 0.00 | 0.00 | 1005.8 | |
| 20260504234552 | -17 | 208 | 9.7 | 29.0 | 0.00 | 0.00 | 0.00 | 1005.5 | |
| 20260504233100 | -17 | 89 | 8.0 | 22.5 | 0.00 | 0.00 | 0.00 | 1005.5 | |
| 20260504231554 | -17 | 190 | 8.0 | 19.3 | 0.00 | 0.00 | 0.00 | 1005.2 | |
| 20260504230052 | -17 | 208 | 6.4 | 22.5 | 0.00 | 0.00 | 0.00 | 1005.3 | |
| 20260504224553 | -17 | 277 | 6.4 | 27.4 | 0.00 | 0.00 | 0.00 | 1005.1 | |
| 20260504223055 | 11 | 274 | 9.7 | 25.7 | 0.00 | 0.00 | 0.00 | 66 | 1004.9 |
| 20260504221604 | 11 | 194 | 9.7 | 25.7 | 0.00 | 0.00 | 0.00 | 66 | 1004.9 |
| 20260504220122 | 11 | 203 | 12.9 | 32.2 | 0.00 | 0.00 | 0.00 | 66 | 1004.7 |
| 20260504214551 | 12 | 277 | 14.5 | 32.2 | 0.00 | 0.00 | 0.00 | 65 | 1004.8 |
| 20260504213113 | 11 | 230 | 9.7 | 30.6 | 0.00 | 0.00 | 0.00 | 66 | 1005.0 |
| 20260504211550 | 11 | 189 | 16.1 | 30.6 | 0.00 | 0.00 | 0.00 | 65 | 1004.9 |
| 20260504210059 | 11 | 279 | 16.1 | 43.5 | 0.00 | 0.00 | 0.00 | 64 | 1004.8 |
| 20260504204606 | 11 | 170 | 14.5 | 30.6 | 0.00 | 0.00 | 0.00 | 66 | 1004.8 |
| 20260504203052 | 12 | 50 | 9.7 | 37.0 | 0.00 | 0.00 | 0.00 | 64 | 1004.9 |
| 20260504201550 | 13 | 251 | 9.7 | 29.0 | 0.00 | 0.00 | 0.00 | 49 | 1004.3 |
| 20260504194552 | 15 | 201 | 8.0 | 29.0 | 0.00 | 0.00 | 0.00 | 38 | 1003.5 |
| 20260504193054 | 15 | 279 | 9.7 | 35.4 | 0.00 | 0.00 | 0.00 | 37 | 1003.5 |
| 20260504191555 | 15 | 289 | 12.9 | 37.0 | 0.00 | 0.00 | 0.00 | 36 | 1003.5 |
| 20260504190057 | 15 | 269 | 14.5 | 33.8 | 0.00 | 0.00 | 0.00 | 37 | 1003.5 |
| 20260504184558 | 15 | 209 | 14.5 | 38.6 | 0.00 | 0.00 | 0.00 | 36 | 1003.5 |
| 20260504183059 | 14 | 278 | 19.3 | 48.3 | 0.00 | 0.00 | 0.00 | 35 | 1003.6 |
| 20260504181556 | 14 | 251 | 19.3 | 41.8 | 0.00 | 0.00 | 0.00 | 37 | 1003.5 |
| 20260504180057 | 13 | 260 | 19.3 | 45.1 | 0.00 | 0.00 | 0.00 | 42 | 1003.6 |
| 20260504174557 | 13 | 297 | 16.1 | 46.7 | 0.00 | 0.00 | 0.00 | 40 | 1003.7 |
| 20260504173101 | 13 | 220 | 19.3 | 49.9 | 0.00 | 0.00 | 0.00 | 41 | 1003.5 |
| 20260504171606 | 13 | 308 | 12.9 | 41.8 | 0.00 | 0.00 | 0.00 | 43 | 1003.5 |
| 20260504170106 | 12 | 230 | 16.1 | 41.8 | 0.00 | 0.00 | 0.00 | 43 | 1003.5 |
| 20260504081554 | -17 | 302 | 16.1 | 38.6 | 0.00 | 0.00 | 0.00 | 996.9 | |
| 20260504044555 | -17 | 312 | 14.5 | 38.6 | 0.00 | 0.00 | 0.00 | 992.9 | |
| 20260504043100 | -17 | 339 | 16.1 | 43.5 | 0.00 | 0.00 | 0.00 | 992.2 |